Theta_e
314 313 314 313 319 321 324 330 333 337 331 323 326 327 321 325 329 327 329 328 330 327 324 329 332 331 330 337 338 339 337 337 340 337 340 341 338 340 340 338 335 329 331 330 329 330 327 321 322 328 330 332 335 336 336 336 337 336 336 336 334 333 334 335 334 333 333 333 332 332 332 333 333 332 332 332 331 331 331 331 331 331 331 331 331 331 330 330 331 332 332 331 330 330 331 331 330
313 313 314 317 322 320 327 335 333 335 334 323 320 325 320 321 328 328 329 328 329 324 324 331 335 334 334 336 337 339 339 337 336 336 337 338 339 340 340 338 332 329 331 330 330 328 324 322 322 326 330 332 335 335 335 336 337 336 336 335 334 333 333 334 334 333 332 332 332 332 333 333 333 333 332 331 330 330 331 331 331 331 331 331 331 331 330 329 330 331 331 330 330 331 330 330 330
312 313 315 320 325 323 332 337 332 328 325 322 321 326 322 319 326 326 326 327 327 323 325 332 332 330 335 340 340 340 338 337 337 337 338 339 341 340 340 337 331 330 330 331 330 328 325 321 319 325 331 333 335 335 334 335 336 336 336 335 334 332 332 334 333 332 331 331 332 331 333 334 333 333 332 332 331 330 331 330 330 331 331 331 331 332 331 329 329 331 331 330 330 330 330 330 330
312 317 317 323 332 333 335 333 333 326 320 325 321 323 326 322 324 323 325 328 328 328 328 331 328 326 338 346 340 341 341 337 338 338 339 339 340 340 340 334 331 330 330 332 330 328 326 321 318 323 330 333 334 335 335 335 336 336 336 335 334 334 332 332 333 332 331 331 331 331 332 334 333 332 332 333 332 331 331 331 331 331 331 331 331 331 331 329 328 331 331 330 330 330 330 330 330
313 320 319 323 334 335 330 325 332 326 322 329 320 322 328 325 326 325 326 326 328 332 330 330 329 326 337 340 335 343 342 338 338 337 339 339 340 340 338 334 331 330 331 332 330 328 325 321 319 319 327 332 334 335 334 334 335 336 336 336 335 335 332 331 333 332 332 332 331 330 332 333 333 332 332 332 331 331 331 331 331 330 330 330 330 330 330 328 329 330 330 329 329 329 330 330 330
316 321 322 321 325 327 328 323 328 329 329 334 325 327 328 324 327 327 327 325 328 331 330 331 330 333 340 336 334 340 338 338 338 336 339 339 340 339 337 334 331 330 331 332 331 329 325 321 319 317 321 328 331 333 334 334 334 336 335 335 335 335 333 332 333 331 330 330 330 330 331 333 333 332 331 331 332 331 330 329 329 329 328 328 328 329 329 328 329 330 330 329 329 329 329 329 329
317 323 328 325 322 327 332 326 331 333 325 327 327 327 326 324 326 328 328 326 327 327 329 332 331 339 340 335 336 337 335 337 337 337 340 339 340 339 336 333 331 330 331 333 331 328 325 321 319 318 318 321 326 330 333 333 334 335 335 335 334 334 334 334 333 329 327 327 329 330 330 330 331 331 331 331 331 330 328 327 328 328 328 328 328 328 328 327 329 330 329 328 328 328 328 329 329
319 324 331 330 326 327 328 325 333 333 317 320 326 324 325 325 325 328 328 327 328 326 327 326 330 338 334 337 343 337 335 335 336 339 340 340 340 339 336 333 331 330 330 332 331 329 326 321 319 319 318 319 323 327 331 333 333 335 335 335 334 334 335 333 331 328 326 326 328 330 329 328 330 330 330 331 331 330 329 327 328 329 329 329 328 327 327 327 329 329 327 328 328 328 328 328 328
320 322 329 329 325 325 326 324 325 325 317 321 325 323 325 324 324 327 326 326 326 327 326 323 328 334 335 343 346 337 335 335 337 340 339 340 340 338 335 333 333 332 330 331 331 329 326 322 319 319 319 319 321 324 328 332 332 333 335 334 334 334 335 333 330 328 327 326 327 329 329 328 329 330 331 331 331 330 329 328 329 329 329 329 329 328 327 326 328 328 326 326 327 328 328 328 328
324 323 327 328 325 321 323 328 327 322 317 320 324 325 325 322 323 323 326 326 324 327 324 327 334 336 339 344 342 337 336 336 338 339 340 341 339 338 336 335 336 335 331 330 332 329 327 324 320 319 320 319 320 321 326 332 332 332 333 333 334 334 334 333 330 328 327 327 327 329 329 329 329 330 331 330 330 329 328 329 329 329 329 329 329 329 327 326 326 327 327 326 326 328 328 327 327
331 330 329 327 323 319 322 330 331 325 316 319 323 323 323 322 322 321 324 323 324 326 321 330 340 338 340 341 340 337 335 336 338 339 340 340 339 339 338 338 338 337 332 330 332 330 328 325 321 320 319 320 320 320 323 329 331 331 333 333 333 333 333 332 329 328 326 326 328 328 329 328 329 329 328 328 329 329 329 329 328 327 328 328 328 328 327 326 325 325 326 325 325 327 327 327 327
330 333 336 330 326 324 326 329 326 323 316 319 322 320 321 319 321 321 323 322 324 325 321 328 337 339 343 341 340 336 334 337 337 339 340 340 339 339 339 339 339 339 333 330 332 331 329 326 323 321 320 320 320 320 320 322 324 326 331 332 332 331 331 330 329 328 324 325 328 329 328 327 327 326 326 328 329 329 329 328 327 327 328 328 328 327 327 326 324 324 324 324 325 327 327 327 326
331 334 334 329 332 330 328 327 324 322 316 319 321 319 319 319 321 321 323 324 325 325 322 323 329 340 344 338 338 335 335 337 337 339 339 339 339 340 339 339 339 338 333 330 331 331 330 327 324 323 322 321 320 321 320 320 320 321 326 328 327 327 327 326 327 325 321 322 325 326 327 327 327 327 327 328 328 328 327 326 326 327 327 327 327 327 327 327 324 324 324 325 326 326 326 326 325
329 333 331 327 332 331 328 324 321 320 317 320 321 318 319 319 321 320 323 325 325 324 319 322 330 343 343 336 338 336 336 336 337 338 337 339 339 339 339 339 339 337 333 329 331 332 331 329 326 325 323 322 321 321 321 320 319 320 321 321 321 322 322 322 321 320 318 320 321 323 325 326 328 328 329 328 327 326 326 325 325 326 326 326 326 327 327 327 325 324 325 325 326 326 326 325 324
324 334 334 329 330 326 326 323 319 319 318 322 320 319 320 317 318 318 323 325 323 320 315 320 328 334 338 342 345 335 336 336 337 337 336 338 338 339 339 339 339 336 333 329 330 331 332 330 328 327 325 324 322 321 321 321 320 320 319 318 318 318 318 318 318 318 318 319 320 321 324 325 327 328 329 328 327 327 326 326 324 324 326 326 326 326 327 326 324 324 325 325 326 326 325 324 323
328 336 330 327 330 325 324 323 320 320 321 323 319 319 321 316 317 317 318 321 319 321 325 324 323 326 333 346 348 334 335 337 337 336 336 338 339 339 339 339 338 336 333 329 329 330 332 331 330 329 328 327 325 322 321 322 322 321 320 319 318 318 318 318 318 318 317 319 319 320 323 324 325 327 328 327 327 327 327 325 323 323 325 325 325 326 326 325 324 325 325 325 326 326 324 323 323
328 330 326 326 330 326 326 323 319 323 325 324 319 319 321 317 317 315 315 320 321 328 337 333 327 332 334 337 336 333 336 336 336 336 335 338 339 338 338 338 336 335 332 329 328 328 331 331 330 330 330 329 327 325 323 322 323 322 321 320 319 318 318 318 318 318 318 318 318 319 321 322 323 324 327 327 327 326 326 325 323 322 322 322 323 323 324 324 324 325 325 325 325 325 325 324 324
324 326 324 324 328 328 328 324 318 323 324 320 320 320 321 318 317 315 316 322 324 329 334 333 335 335 332 332 331 334 337 336 337 336 335 337 338 337 337 337 336 335 332 330 328 326 329 330 330 330 330 331 330 328 326 323 323 323 322 321 320 319 318 318 318 318 317 317 316 316 319 321 321 321 323 324 325 325 325 325 323 321 320 319 318 319 322 323 324 324 325 325 325 325 325 325 324
327 329 323 328 337 331 323 319 318 320 320 319 320 319 319 319 317 316 319 320 323 331 331 334 343 337 332 332 333 335 335 336 336 335 335 335 336 337 336 337 336 336 335 332 330 328 327 328 329 329 330 331 331 330 328 326 324 323 323 323 322 320 319 319 319 319 317 318 318 318 319 320 320 320 320 320 321 322 323 324 323 321 319 318 317 317 321 322 323 324 324 324 324 324 324 324 324
327 325 321 336 340 329 319 315 317 319 319 319 319 318 319 319 317 316 319 318 321 332 336 340 345 338 335 333 332 335 335 335 335 335 335 334 335 336 336 337 337 337 337 335 333 331 329 328 328 328 330 331 331 331 330 329 327 325 324 324 323 322 321 320 319 319 319 321 322 322 321 321 322 321 319 318 318 318 319 321 321 320 318 317 316 317 319 320 321 322 322 322 322 322 323 323 324
321 318 324 336 328 320 319 315 317 318 317 319 319 318 319 317 316 316 317 318 318 322 330 344 346 336 336 334 332 334 334 334 334 334 334 333 334 335 336 336 337 338 337 337 336 335 334 332 330 329 330 330 331 332 332 331 329 328 326 324 324 323 323 322 320 319 320 322 324 323 323 323 324 323 321 319 317 316 315 317 319 319 319 317 316 317 318 318 319 319 321 321 321 321 321 322 323
318 317 324 330 320 316 319 317 317 318 315 317 318 318 318 316 315 316 317 318 318 317 318 331 341 336 335 334 332 333 333 333 333 333 333 334 334 334 335 336 336 337 338 338 337 336 336 336 335 333 332 331 332 333 333 332 331 329 328 326 325 324 324 323 322 321 320 323 325 325 324 324 325 324 324 321 318 316 314 314 316 317 317 317 317 317 317 317 317 319 321 322 322 321 321 321 321
319 319 320 322 319 316 318 317 316 317 316 318 318 317 317 316 316 315 316 318 319 319 315 324 335 333 333 333 332 333 332 332 332 333 333 334 334 333 334 335 336 336 337 338 336 336 336 337 337 336 335 332 332 334 334 334 333 330 329 329 327 326 325 324 324 322 321 324 326 326 325 325 325 325 324 321 319 318 318 314 314 315 316 317 318 318 317 317 318 320 322 321 322 322 322 322 321
318 319 319 317 317 317 317 316 316 316 316 317 315 316 317 317 318 313 315 317 319 318 310 320 334 332 332 333 332 333 332 332 332 333 333 334 334 334 334 334 335 336 336 336 337 336 336 337 337 337 337 334 333 334 336 336 334 332 330 330 329 328 327 326 325 324 322 324 327 326 326 326 326 326 325 322 318 320 321 318 316 317 318 318 319 319 319 318 318 320 322 321 321 321 321 321 320
318 319 319 317 316 318 316 316 317 315 315 316 314 316 317 317 316 313 316 316 318 317 310 322 334 332 333 334 333 332 331 332 331 332 333 333 334 334 334 334 335 335 335 335 336 336 336 337 337 337 337 336 335 335 336 336 335 335 332 331 330 330 330 329 328 326 323 324 327 327 326 326 327 327 326 323 318 320 322 321 320 320 321 321 320 319 319 320 320 320 321 321 321 321 320 320 320
317 318 319 317 316 316 315 315 316 316 316 314 315 316 314 314 313 313 318 315 318 319 317 330 335 333 335 334 333 331 330 331 331 332 332 333 334 334 334 334 334 335 335 334 335 335 335 335 336 336 337 336 336 336 337 336 336 335 334 333 332 332 332 331 329 327 325 324 326 327 327 327 327 328 326 323 319 320 323 322 321 321 322 323 322 320 319 319 319 319 320 320 320 321 320 320 320
316 318 318 317 316 316 315 315 315 316 315 314 317 316 314 316 313 315 318 314 320 324 324 332 336 335 335 333 333 331 330 331 331 332 331 332 332 332 334 334 334 334 335 335 334 335 335 335 335 336 336 337 336 336 337 337 336 335 334 334 333 333 333 332 330 329 327 325 325 326 327 327 328 327 325 324 322 322 323 323 323 322 322 323 323 321 320 319 318 318 318 319 320 320 320 320 319
315 316 316 315 315 314 314 315 315 315 314 316 318 316 315 316 314 318 318 313 321 328 327 331 336 335 334 334 332 330 330 331 331 331 331 331 332 332 333 333 334 334 335 335 334 334 335 335 335 335 336 337 337 337 337 337 336 335 334 334 334 334 333 333 331 329 328 326 325 326 327 327 327 327 325 325 325 325 324 323 323 323 323 323 323 322 321 320 320 319 317 318 320 320 320 320 318
314 315 316 315 314 315 314 315 315 314 314 316 317 315 315 316 316 318 316 314 320 327 327 329 332 334 333 333 332 331 330 330 331 331 331 331 332 332 332 332 333 333 334 335 334 334 334 335 335 335 336 337 337 337 337 337 336 336 335 334 334 334 334 333 332 331 329 328 327 326 326 327 327 327 326 326 326 326 326 325 324 323 323 323 323 323 322 321 321 319 316 316 318 318 318 319 319
314 315 316 316 314 315 315 314 315 314 315 315 314 316 319 318 316 315 314 314 320 328 328 326 328 330 331 332 332 331 329 329 330 330 332 332 332 332 332 332 332 333 333 333 334 334 333 334 335 336 336 336 337 337 337 337 336 336 335 335 334 334 334 333 333 332 331 330 329 328 327 327 327 327 327 327 326 326 326 326 325 324 323 324 323 323 322 321 320 319 317 316 317 318 318 319 319
315 313 315 317 316 319 318 314 315 315 314 315 312 314 319 320 317 315 313 314 319 327 328 324 324 326 328 330 331 331 329 328 330 330 331 331 332 332 332 332 332 333 333 333 333 333 333 333 334 335 335 336 336 337 337 337 337 336 335 335 335 335 335 334 333 333 332 330 330 329 328 327 327 327 327 327 326 326 326 326 326 325 324 324 324 323 322 321 320 320 319 318 317 317 318 318 319
314 313 316 316 315 323 322 315 316 316 314 314 312 314 317 318 319 316 313 312 315 320 321 320 321 321 323 326 328 329 327 326 329 330 331 331 332 332 332 332 332 333 333 333 333 333 333 333 333 334 335 335 336 336 336 336 337 336 336 335 335 335 335 335 334 333 333 332 330 330 330 329 328 327 327 327 327 326 326 326 326 326 325 324 324 323 321 321 321 321 321 320 319 317 316 316 317
314 314 320 320 315 319 319 314 316 316 314 313 312 315 317 316 316 314 312 311 313 315 316 316 317 317 318 321 324 326 326 325 327 328 330 331 331 332 333 332 332 332 333 333 334 333 333 333 333 334 334 334 335 335 336 336 336 336 336 336 335 335 334 335 334 334 333 332 331 330 330 330 329 328 327 327 327 327 326 326 326 326 325 325 324 323 322 322 322 322 322 322 321 320 318 315 315
316 313 319 322 317 316 316 316 316 315 314 314 313 314 317 316 315 314 312 310 312 314 314 313 313 314 315 316 319 322 324 325 324 325 329 330 331 332 333 333 332 332 333 334 334 334 334 333 333 333 334 333 334 335 335 336 336 336 336 336 336 335 335 335 334 334 334 333 332 331 330 330 329 328 327 327 327 327 327 326 326 325 325 325 325 324 323 323 323 322 322 323 322 322 320 318 317
319 315 315 318 314 314 316 317 315 314 314 314 314 314 315 316 316 315 313 311 312 313 312 312 311 312 314 314 315 317 321 324 322 322 326 329 330 331 332 333 333 333 333 333 335 335 334 334 334 333 334 333 333 334 335 335 336 335 335 335 335 335 335 335 334 334 334 334 333 332 331 330 330 328 327 327 327 327 327 326 326 325 325 325 325 325 324 324 323 322 322 323 323 322 322 321 319
320 317 315 317 316 313 316 319 316 314 314 315 315 314 314 314 314 315 314 312 313 313 312 311 311 311 312 313 313 313 318 322 320 320 324 327 329 330 331 332 333 334 334 334 334 335 335 335 334 334 333 334 333 333 334 335 336 335 335 335 335 335 335 335 334 334 334 334 334 333 331 330 330 329 328 327 326 327 327 327 326 326 326 326 326 325 325 325 324 323 323 323 323 322 322 322 322
313 314 314 316 317 314 316 319 315 313 314 315 314 314 314 313 314 315 312 311 314 315 314 313 312 312 311 312 312 313 315 317 317 319 322 324 327 329 330 331 332 333 334 334 334 334 336 335 334 334 334 334 334 333 334 335 335 335 335 335 335 335 335 335 335 334 334 334 334 333 332 331 331 330 329 327 326 326 326 327 327 326 326 326 326 326 325 325 325 325 323 322 322 322 321 322 322
311 314 313 314 316 315 315 316 315 313 313 316 316 314 313 313 314 313 310 311 314 315 314 314 313 312 311 312 312 312 313 313 315 318 319 322 325 327 329 330 331 332 333 334 334 334 335 335 335 335 334 334 334 334 334 334 335 335 335 335 335 335 335 335 335 335 334 334 334 334 332 331 330 330 330 329 327 326 325 326 326 326 327 326 326 326 325 325 325 325 323 321 322 321 321 322 322
312 314 314 314 316 316 315 315 315 313 313 318 318 314 314 314 313 312 311 313 314 312 313 314 314 314 312 311 311 312 312 313 316 317 316 319 324 326 327 329 330 331 332 333 334 334 334 334 335 335 335 334 334 334 334 334 334 334 335 335 335 335 335 335 335 334 334 334 334 334 333 332 330 330 330 329 328 328 326 325 325 325 327 327 326 325 325 325 324 324 323 322 321 320 320 321 321
313 315 315 315 315 315 314 313 314 313 312 316 317 315 314 313 313 313 313 312 312 312 313 313 313 314 314 312 311 312 313 314 315 315 313 314 319 324 326 328 330 330 331 332 333 334 334 334 334 335 335 335 335 334 334 334 334 334 335 334 334 334 334 334 335 335 334 334 334 334 333 333 332 330 330 330 329 329 328 327 325 324 326 327 326 326 325 325 325 325 323 322 321 320 320 321 322
315 318 317 317 316 316 315 314 315 314 313 316 315 314 317 318 315 314 312 311 311 312 313 313 313 313 313 313 313 312 313 313 314 315 313 310 313 320 325 327 329 329 330 331 332 333 333 334 334 334 335 335 335 335 335 334 334 334 334 334 334 334 333 333 333 334 334 334 334 334 333 333 332 331 331 330 330 329 328 328 327 325 325 325 326 327 326 326 326 326 325 323 321 321 321 321 321
315 318 322 322 317 316 318 318 316 314 315 317 312 313 327 332 325 319 315 312 312 311 312 313 313 312 311 313 313 313 314 314 314 314 312 309 310 316 321 325 327 328 329 330 331 332 332 333 333 334 334 334 335 335 334 334 333 333 333 333 333 333 332 332 332 333 333 333 333 333 333 333 332 332 331 331 330 330 329 328 327 327 326 326 327 327 326 326 326 326 326 324 322 323 322 320 320
313 317 324 325 319 319 321 319 319 318 315 316 314 314 323 325 323 324 320 317 316 313 313 314 311 311 312 311 312 313 313 314 314 314 313 310 308 312 317 321 325 327 328 329 330 331 331 332 332 333 333 334 334 334 334 334 333 333 333 333 332 332 332 332 332 332 332 332 332 332 332 332 332 332 332 331 330 330 329 328 326 326 326 326 327 326 326 326 326 326 326 324 323 323 322 319 319
317 321 323 325 322 322 322 318 323 325 317 319 324 319 315 316 319 321 318 317 320 319 316 316 312 310 312 311 311 312 312 314 314 315 315 311 308 310 314 318 322 325 326 328 329 329 330 331 331 332 332 333 333 334 333 333 333 333 333 332 331 331 331 331 331 331 331 331 331 332 331 331 332 332 332 331 330 329 328 328 327 326 326 327 327 326 326 326 325 325 326 324 323 323 322 321 321
321 323 321 322 322 324 323 321 325 322 315 320 325 317 314 322 327 324 317 314 319 322 320 321 317 312 311 310 311 312 312 313 314 316 315 310 307 309 312 315 319 322 325 327 328 329 329 330 331 331 331 332 332 333 333 333 333 332 332 332 331 330 330 329 330 330 330 330 330 330 331 331 331 331 331 331 331 329 328 328 328 328 328 328 327 325 325 325 325 325 325 325 324 323 323 323 322
322 322 320 322 323 323 324 326 327 319 314 321 324 316 314 322 328 325 317 313 316 319 318 319 319 317 314 313 312 312 315 316 319 320 313 307 309 311 311 313 316 319 322 325 327 328 329 330 330 330 331 331 331 332 333 333 332 332 332 331 330 330 329 329 329 329 329 329 329 329 330 330 330 330 330 330 330 330 329 328 328 328 329 328 327 326 325 326 326 325 324 325 324 324 324 323 322
319 320 320 321 324 328 332 335 329 316 318 328 329 321 312 314 324 325 315 315 317 315 316 317 317 323 326 324 318 314 317 321 324 327 316 307 310 312 312 313 313 316 320 323 325 327 328 329 330 330 331 331 331 332 332 332 332 332 331 331 330 329 329 329 328 328 328 328 329 329 329 329 330 330 330 330 330 330 330 330 329 329 329 328 327 326 325 324 324 324 324 324 324 323 323 323 321
320 324 321 318 324 330 333 333 325 316 323 330 325 319 313 313 323 325 317 316 317 314 316 318 317 326 334 334 329 323 324 325 327 332 324 314 314 312 311 312 312 314 316 318 322 324 325 327 328 330 331 331 332 331 332 332 332 332 331 330 330 330 329 329 329 328 328 329 329 329 329 329 330 330 330 330 331 330 330 330 330 330 328 327 326 325 324 324 324 324 325 325 324 323 322 322 321
319 322 318 317 323 323 322 325 322 320 323 320 316 316 316 315 318 319 316 315 316 314 315 317 318 327 334 333 331 328 328 329 330 332 329 325 319 312 310 312 312 313 314 315 317 319 321 324 325 327 328 330 331 331 332 332 331 331 331 331 330 330 329 329 329 329 329 329 329 329 329 329 330 330 331 331 331 331 331 329 328 327 326 326 327 326 325 325 324 324 324 324 323 322 321 320 319
314 317 317 320 322 315 315 320 318 319 320 315 312 315 317 318 317 317 316 313 314 314 314 316 320 328 333 329 325 325 325 328 331 331 333 332 318 309 311 313 312 312 312 313 313 314 316 317 320 323 325 326 328 329 330 331 332 331 331 331 330 330 330 329 329 329 329 329 329 330 330 330 330 330 330 329 329 330 329 328 327 326 326 327 327 326 324 323 323 323 322 322 322 320 319 318 317
314 318 318 321 321 317 317 320 319 319 319 314 311 316 322 321 318 318 316 313 314 315 314 317 322 326 325 322 321 323 324 327 330 332 336 328 311 309 314 313 313 313 312 312 312 312 313 313 315 318 321 323 325 326 327 329 331 331 331 330 330 330 330 330 330 329 329 329 329 330 330 329 329 328 328 328 328 328 328 328 327 327 327 326 325 325 324 323 322 321 321 321 320 319 318 318 317
317 319 318 319 322 325 324 321 326 325 319 317 314 318 327 321 313 315 312 312 316 315 313 316 321 321 318 319 323 324 325 328 330 333 337 325 310 311 315 314 314 313 310 311 311 311 312 312 313 315 318 321 323 325 326 327 328 329 330 330 329 329 329 329 330 329 329 329 329 328 328 328 327 327 327 327 326 327 327 327 326 326 325 324 324 323 322 321 321 320 320 318 317 317 317 316 315
317 315 319 322 319 326 324 314 318 320 316 320 316 317 327 320 313 317 315 314 316 314 313 314 317 317 316 321 325 324 325 329 331 334 335 324 313 314 316 315 315 312 310 312 311 311 311 311 312 313 315 319 322 324 325 326 327 328 328 329 328 328 329 329 329 329 328 328 327 327 327 327 327 326 325 324 324 324 324 324 324 323 322 322 322 321 319 319 318 318 317 315 314 315 314 313 313
317 315 319 319 314 322 323 314 317 316 316 325 318 316 323 319 318 325 318 313 315 315 316 316 316 317 316 320 322 322 326 329 330 331 328 318 311 313 316 316 316 315 314 314 313 312 311 310 311 311 312 316 320 324 325 325 327 327 327 328 327 328 328 328 328 327 326 326 326 326 326 325 325 324 323 323 323 322 322 321 321 321 320 319 318 317 316 315 315 314 314 313 313 313 312 312 311
317 318 316 316 317 320 319 316 319 314 314 325 321 315 320 318 321 326 317 313 318 316 316 317 316 316 317 319 320 323 329 330 329 330 328 319 312 313 316 316 316 316 316 315 314 314 313 312 311 310 311 313 317 321 323 325 326 326 327 326 326 327 326 327 326 325 325 325 324 324 324 323 323 322 321 321 321 320 319 319 319 319 318 317 316 314 313 313 313 313 313 312 312 311 310 310 309
315 315 312 315 321 323 319 317 320 317 316 324 322 316 320 323 321 321 316 316 320 316 317 320 317 316 317 321 324 326 328 329 328 329 329 321 312 312 315 316 317 316 316 317 317 316 316 315 314 313 313 315 317 320 322 323 324 325 325 325 325 325 325 325 325 324 324 323 323 323 322 321 321 320 320 319 319 319 318 318 318 318 317 316 314 312 312 312 312 311 311 311 310 309 308 308 307
314 315 313 312 315 320 320 318 320 323 322 324 321 316 324 328 319 316 315 314 316 317 319 323 322 319 318 321 328 330 326 325 326 325 325 317 310 312 315 316 316 317 317 318 318 318 318 317 316 316 316 318 320 321 321 322 323 323 323 323 323 323 324 324 323 323 323 322 322 322 320 320 319 319 318 318 318 318 317 317 316 315 313 312 311 310 310 309 308 308 308 308 307 307 306 305 304
316 315 314 314 315 316 316 315 317 320 321 324 322 316 323 330 319 313 313 312 313 314 317 324 326 321 319 321 325 329 326 325 324 323 322 314 308 311 314 315 316 317 317 319 319 319 319 318 317 317 318 320 320 321 321 321 322 322 322 322 322 322 322 322 322 322 322 321 321 319 318 318 318 318 317 317 317 316 315 314 312 311 309 308 308 307 306 306 305 305 305 304 303 301 300 299 297
Wind_Speed
12 12 12 11 11 8 5 3 2 3 2 1 2 1 2 2 2 4 4 1 2 1 1 3 4 5 5 5 8 7 3 2 4 4 2 4 18 26 19 18 21 20 20 18 16 14 12 11 13 14 14 16 16 14 14 15 17 18 18 18 17 18 19 18 18 18 17 18 18 18 18 18 19 19 19 19 20 20 20 20 20 20 20 20 20 19 20 19 18 19 19 21 23 23 22 20 20
12 11 9 8 8 4 2 3 3 3 4 2 3 3 2 2 2 6 5 3 4 3 2 7 9 10 9 9 7 5 3 3 2 3 1 13 24 22 18 20 22 21 20 18 16 14 13 12 13 14 15 17 16 14 14 15 16 17 18 18 17 18 19 18 17 17 18 18 17 17 18 18 18 18 19 19 20 20 19 20 20 20 20 20 20 19 19 19 19 19 19 21 23 22 21 19 19
11 10 8 6 4 4 1 3 2 1 3 1 3 3 1 3 4 6 6 6 7 7 7 8 9 7 7 6 3 3 0 5 1 3 5 19 21 17 21 21 22 21 20 19 16 15 13 13 13 15 17 18 16 14 14 14 16 17 17 17 17 18 18 18 17 17 18 18 16 15 16 17 17 17 19 19 19 19 19 19 19 19 20 20 20 19 19 20 21 20 19 21 22 21 20 19 19
9 8 8 5 3 4 3 3 1 4 1 2 2 4 1 5 6 5 5 6 7 6 5 5 5 2 5 6 2 3 2 2 3 4 6 16 18 22 25 22 22 20 20 19 17 15 14 13 14 15 17 18 17 15 14 14 15 16 17 17 17 16 17 17 17 18 17 17 16 15 15 15 15 16 17 18 19 19 18 19 19 19 19 19 19 19 19 20 21 20 19 20 21 20 19 19 19
6 4 5 4 3 1 2 1 1 4 1 3 3 5 3 6 7 5 4 4 3 5 5 4 3 2 4 5 2 2 3 2 4 6 9 15 21 27 25 24 23 21 20 18 17 16 14 14 14 14 16 18 17 15 14 14 15 15 16 17 16 16 16 17 17 17 16 16 16 16 15 15 15 15 16 17 18 18 18 18 19 18 18 18 18 18 19 20 20 19 19 21 20 20 20 19 19
3 3 4 5 2 1 2 0 1 1 4 5 4 5 6 7 8 7 4 1 3 5 6 4 4 3 3 1 1 4 5 3 5 8 13 19 25 27 25 25 23 21 21 19 17 16 15 14 14 14 15 17 17 16 14 14 15 15 16 16 16 17 17 16 16 15 15 16 16 16 15 15 14 15 16 16 17 17 17 16 17 17 17 17 17 17 18 19 20 18 19 21 20 20 20 20 19
4 2 3 4 1 1 3 2 3 3 4 6 6 7 9 7 8 8 6 3 5 5 5 4 6 7 2 1 2 2 3 2 7 11 18 25 26 26 25 25 23 22 21 19 17 16 16 14 14 14 14 15 16 16 15 14 14 15 15 15 15 17 16 15 14 14 14 15 16 16 14 14 14 14 15 15 15 15 15 15 15 16 17 17 17 16 17 18 18 18 20 21 21 20 20 19 18
4 2 1 4 1 2 3 2 3 3 2 4 4 7 10 9 8 8 7 3 3 2 5 4 5 6 1 1 2 3 2 6 10 16 24 28 27 25 26 25 23 22 21 19 17 17 16 14 14 13 14 14 14 16 16 14 14 15 15 15 16 15 15 13 12 13 14 14 16 16 14 13 14 14 14 14 14 14 14 15 16 16 16 16 16 15 16 17 17 18 20 21 20 20 19 18 18
4 3 1 3 2 1 2 1 2 4 3 2 4 4 7 7 6 7 6 2 4 4 4 4 4 5 1 4 1 4 2 11 15 21 27 28 27 26 26 25 23 22 21 20 18 18 16 14 14 14 14 13 14 15 15 15 14 15 15 15 15 14 13 11 11 12 12 13 15 16 15 14 14 14 15 14 14 14 14 15 15 15 15 15 15 15 15 16 17 18 19 19 19 19 19 18 18
4 3 1 2 2 0 2 2 2 3 3 3 4 5 7 6 4 5 8 6 5 6 3 3 5 6 4 3 0 2 4 15 21 25 28 27 27 26 25 23 22 22 22 21 19 18 17 15 14 14 14 13 13 14 15 16 14 14 15 15 14 13 12 10 10 10 11 12 14 15 15 15 15 14 13 13 13 13 14 15 14 14 14 15 15 14 14 16 17 18 18 17 17 18 19 18 17
3 4 2 3 2 2 3 3 3 4 2 1 2 5 6 6 5 4 7 6 3 6 4 3 6 5 5 1 2 1 7 19 26 28 28 28 27 26 24 22 21 20 22 23 20 18 17 15 14 14 14 13 12 13 15 16 15 14 15 14 13 13 11 10 10 10 11 12 14 14 13 15 16 14 12 11 12 13 13 13 13 14 14 14 14 13 14 15 17 18 18 17 17 18 18 18 16
2 3 4 3 2 3 4 3 4 4 3 2 4 5 4 5 6 5 7 6 3 7 3 2 6 5 5 1 3 1 9 20 27 29 29 29 27 26 24 23 21 19 21 23 21 19 18 16 15 14 13 13 13 12 13 14 13 13 15 14 13 12 11 10 11 10 11 12 14 13 12 15 15 13 13 12 12 12 12 12 12 14 13 13 13 13 13 14 17 18 18 17 17 17 17 16 16
3 1 4 2 3 3 3 2 3 2 2 3 5 4 5 5 6 8 8 7 6 7 3 5 8 5 4 1 2 1 8 19 26 28 28 28 28 26 24 23 22 19 20 23 22 20 19 17 16 14 14 13 13 12 12 12 11 12 14 14 13 13 11 11 11 10 10 12 13 12 13 15 14 12 12 11 11 11 11 12 13 13 12 12 12 13 13 13 16 18 18 18 17 16 16 15 15
2 3 4 1 1 3 4 1 2 4 4 5 4 3 5 3 6 9 9 8 6 6 3 5 10 6 3 2 1 3 9 20 26 27 24 25 27 26 25 24 22 20 20 23 22 21 20 18 17 15 15 14 13 13 12 11 11 11 12 12 12 12 11 10 10 9 9 10 10 12 13 13 12 11 11 10 10 10 10 10 10 11 11 12 12 12 12 12 15 16 17 17 16 16 15 14 13
2 2 4 1 2 1 3 2 4 6 5 5 3 4 4 0 4 7 8 10 5 3 3 4 6 3 4 7 5 8 16 24 27 24 20 22 27 27 25 24 22 20 21 23 22 22 21 19 18 17 16 15 14 13 13 12 11 11 10 10 10 10 11 10 10 9 9 9 9 10 13 12 11 10 10 9 9 8 8 8 8 10 11 12 11 12 12 12 14 15 15 15 15 15 14 13 12
2 3 4 1 2 2 4 2 3 3 5 5 3 4 5 2 2 4 3 6 4 1 3 2 1 1 9 9 8 18 25 27 28 23 19 23 28 27 25 24 22 21 21 23 22 22 21 20 19 17 17 15 14 14 14 13 12 11 11 10 10 10 10 10 10 9 9 8 8 9 11 11 11 10 9 8 7 6 6 7 8 10 11 11 11 11 11 12 14 14 13 13 13 13 13 12 11
3 3 3 0 2 3 4 4 4 3 5 5 4 3 6 2 0 1 2 5 6 3 4 1 3 2 7 4 10 29 30 28 28 22 20 25 26 25 25 25 24 23 23 23 23 22 21 21 19 18 18 16 15 15 14 14 13 13 12 11 11 10 10 10 9 9 8 8 7 8 10 11 11 10 9 8 6 5 5 6 7 8 9 10 10 10 12 12 13 13 13 12 12 11 12 11 10
3 3 2 2 2 3 4 5 6 4 5 7 6 5 8 6 2 2 4 7 6 5 6 3 5 6 2 4 19 33 31 30 28 23 23 25 24 23 22 24 25 25 24 24 23 22 22 21 20 20 19 18 16 15 15 15 15 14 13 13 12 12 11 11 9 9 8 8 8 7 9 10 10 9 9 8 6 5 4 4 5 6 6 7 8 10 12 12 13 13 12 11 11 10 10 10 9
3 3 2 3 4 5 4 5 5 3 6 8 6 6 7 7 6 3 4 3 4 7 5 4 6 7 6 12 26 31 30 30 27 24 24 24 24 23 22 23 25 25 25 25 24 22 21 21 21 20 20 19 18 16 16 15 15 15 14 14 13 13 12 12 11 10 9 9 9 8 9 9 8 8 7 7 6 5 5 4 5 5 5 6 8 10 11 11 11 11 10 10 10 9 8 8 8
2 3 2 5 5 4 4 4 6 5 5 11 7 5 6 6 5 4 6 6 5 6 3 2 3 4 6 12 22 27 28 27 26 24 23 24 24 24 25 25 26 27 27 25 24 22 22 22 21 21 20 20 19 18 17 16 16 15 15 15 14 14 13 12 12 11 11 10 9 9 10 9 8 7 6 6 6 6 6 6 6 5 5 6 8 9 10 10 10 10 9 9 9 9 8 7 7
1 3 4 6 2 3 4 2 4 5 4 10 8 5 6 6 3 4 8 7 3 6 7 7 9 11 10 10 18 24 25 24 24 23 22 23 23 24 26 26 27 28 27 25 23 23 22 22 21 21 20 20 20 19 18 17 17 16 16 15 15 14 13 13 12 12 12 11 10 10 9 8 7 5 5 4 4 6 7 7 7 6 6 6 7 8 8 9 9 9 9 9 9 9 8 7 7
1 3 5 6 1 2 5 4 4 1 2 5 9 7 6 4 2 5 11 8 5 7 8 10 13 15 16 15 18 21 22 22 23 23 22 23 23 23 23 24 25 25 26 26 25 23 23 22 21 20 21 21 20 20 19 19 18 18 17 17 16 15 14 13 13 13 13 12 12 11 10 9 8 6 5 4 4 5 6 8 7 7 6 6 7 7 8 8 8 8 7 7 7 7 7 7 6
2 3 3 4 2 3 5 5 4 2 6 7 8 6 6 6 3 5 10 8 7 7 9 10 13 18 21 20 19 17 18 20 23 25 26 25 26 25 24 25 25 27 28 27 26 24 24 23 21 20 21 22 21 20 19 19 19 19 18 17 17 16 15 15 14 14 14 13 13 12 11 11 9 7 6 6 5 5 5 6 8 7 6 6 6 7 8 8 9 8 6 6 5 4 4 4 5
3 4 2 3 4 4 5 5 4 3 7 6 4 5 8 9 5 4 6 8 7 6 7 11 15 19 20 17 16 17 19 22 25 28 29 29 30 29 27 27 27 29 29 28 28 26 26 25 24 22 22 23 22 20 20 20 20 19 19 18 18 17 16 16 15 15 15 15 14 13 12 12 11 9 8 8 7 7 6 5 7 8 7 7 6 6 8 9 9 8 7 6 6 5 4 3 2
4 5 3 1 2 3 5 5 4 4 3 1 4 5 6 6 4 5 7 9 6 2 6 11 14 16 16 15 15 15 17 21 23 25 27 26 27 27 26 26 27 28 29 30 30 28 28 26 26 25 24 23 23 22 21 20 20 20 20 19 18 18 17 16 16 16 17 18 16 15 14 13 12 11 10 10 9 9 7 5 6 8 7 6 6 6 7 8 8 8 8 8 7 6 6 5 5
5 6 4 1 2 3 3 4 4 2 1 2 6 3 2 2 1 3 7 8 4 4 9 12 13 14 13 13 14 15 15 18 22 24 25 25 25 25 26 27 26 28 31 31 31 31 29 28 28 27 26 24 24 23 23 22 22 22 22 20 19 19 18 16 16 17 18 20 19 17 15 14 13 13 12 12 11 10 9 8 7 8 8 7 6 5 6 7 7 7 8 9 8 7 7 6 8
4 6 4 1 1 2 1 1 4 3 1 3 7 3 4 4 2 3 7 6 5 7 9 11 13 14 14 12 13 17 17 21 26 24 23 23 24 27 28 29 29 30 31 31 32 33 30 29 29 29 27 26 25 25 25 24 23 23 22 21 21 20 18 16 17 17 17 20 20 19 17 15 14 13 13 14 12 11 11 10 9 9 9 9 8 6 6 7 7 7 9 10 10 9 9 9 10
3 5 3 3 3 1 1 1 4 2 1 3 7 3 4 4 1 6 7 6 7 9 10 10 13 12 13 13 11 13 17 22 26 23 23 25 27 29 30 31 32 31 32 33 33 33 33 32 31 30 29 28 28 27 27 26 25 24 23 22 22 21 19 18 18 18 17 18 19 20 19 17 15 14 13 14 12 11 11 11 11 11 10 10 9 8 8 9 8 9 10 12 12 12 11 12 11
4 4 4 2 5 3 3 2 2 1 1 3 6 2 5 3 5 7 4 6 6 7 10 9 10 10 10 11 9 10 14 18 20 21 26 30 32 32 32 34 34 33 34 34 33 33 35 34 33 32 31 30 30 30 29 28 27 25 24 23 22 21 21 21 20 19 19 18 18 19 20 19 17 16 15 14 14 12 12 12 13 13 12 11 11 11 11 11 10 11 11 12 14 13 12 12 12
3 2 3 0 3 3 5 2 1 1 1 1 3 2 5 8 10 5 2 7 8 6 8 9 8 8 8 9 8 9 12 15 19 25 30 31 32 34 35 35 35 36 35 34 34 34 34 35 35 34 33 33 32 31 31 29 28 27 26 25 23 23 22 23 22 21 20 20 19 19 19 20 20 19 18 17 16 16 15 14 14 14 14 14 14 14 13 13 12 12 11 12 13 13 13 13 13
1 2 1 1 2 3 6 1 4 3 1 2 4 4 6 9 11 6 4 8 10 8 9 9 8 7 7 8 9 9 11 17 23 29 32 31 32 34 36 35 35 36 35 35 36 36 35 35 36 36 35 35 34 33 33 31 30 28 28 26 25 24 24 24 24 23 22 21 21 20 19 20 21 21 20 19 18 18 18 17 16 15 15 15 15 15 15 15 14 12 11 12 13 14 14 15 15
1 3 3 1 3 4 7 2 7 6 1 2 4 4 6 8 9 7 4 8 10 10 9 8 8 8 8 8 9 8 10 17 23 27 29 31 31 32 35 37 36 36 37 37 37 37 36 36 36 37 37 37 36 35 34 33 31 30 29 28 27 26 26 26 25 25 24 23 22 22 21 21 22 23 22 21 19 19 19 20 18 15 15 15 15 16 16 15 14 12 12 12 13 15 16 17 17
2 2 3 2 3 3 4 2 4 6 2 0 2 3 4 5 7 7 2 8 10 9 9 9 9 9 9 8 8 8 8 11 16 22 28 30 31 33 35 37 38 38 38 38 38 38 38 38 38 38 38 38 37 37 36 34 33 32 31 29 28 28 27 28 27 26 26 25 25 25 24 22 23 24 24 23 21 20 19 20 19 17 16 15 15 15 16 15 14 14 13 13 14 15 16 17 17
3 1 3 3 3 3 2 3 4 4 4 3 3 3 5 6 6 6 2 6 8 8 9 9 9 8 8 7 7 8 8 9 12 21 29 32 33 35 35 36 38 38 37 38 39 39 39 39 39 39 38 38 38 38 37 36 34 33 32 31 30 29 29 29 28 28 28 27 27 27 26 24 23 23 24 25 24 21 18 18 19 18 17 16 15 15 15 15 15 15 15 14 14 15 16 16 16
3 3 4 3 2 2 3 4 3 6 4 5 5 4 9 11 8 6 5 2 6 9 8 7 8 8 8 8 8 9 9 10 14 24 31 33 35 35 36 36 37 37 37 37 38 38 38 39 39 39 39 38 38 38 37 37 35 33 32 32 31 31 31 30 30 30 29 29 29 29 28 26 25 24 23 24 24 23 19 18 18 19 18 17 16 16 15 17 18 18 17 16 16 15 15 15 15
6 5 5 4 4 3 4 4 4 6 5 5 8 7 10 12 9 8 6 1 4 7 6 5 6 7 7 8 8 9 10 12 18 26 30 32 35 35 36 36 36 37 37 37 36 37 38 38 39 39 40 39 38 37 37 37 36 34 33 33 33 34 33 32 32 31 30 30 30 29 29 28 27 26 24 23 24 24 22 20 18 18 19 18 19 18 18 18 18 19 19 19 18 16 16 15 14
5 4 5 6 6 5 5 3 4 2 5 6 8 8 10 9 10 9 5 3 4 8 8 8 7 6 7 8 9 10 11 12 16 23 27 30 33 34 35 35 35 35 36 37 36 36 38 38 39 40 40 39 38 38 38 38 37 36 35 36 36 36 35 34 34 33 32 32 30 29 29 28 28 29 27 24 23 24 24 23 21 20 21 21 22 22 21 19 18 19 20 19 18 17 17 16 15
4 3 5 5 5 5 5 3 4 2 3 5 2 5 10 9 11 9 2 2 7 10 9 9 10 8 7 8 11 10 9 8 8 15 23 27 29 32 33 34 34 34 36 37 38 38 38 38 40 40 40 40 40 40 39 39 39 38 38 38 38 36 36 36 35 35 34 32 31 30 29 28 27 29 30 28 25 23 23 24 24 23 23 23 23 23 21 20 19 21 21 20 19 19 19 17 16
5 3 4 5 4 3 4 3 2 2 2 4 2 3 9 10 10 8 4 7 9 9 10 11 10 10 9 10 10 9 9 8 7 10 18 24 27 30 31 32 34 36 37 38 39 39 38 38 39 40 41 42 42 41 41 40 40 40 38 37 36 35 35 35 35 34 33 32 32 31 30 30 28 28 29 29 27 25 24 24 24 24 25 25 24 23 22 21 22 22 23 23 21 20 19 18 17
5 3 4 4 3 3 3 3 1 2 2 1 0 1 7 8 7 8 9 10 9 7 9 11 10 11 12 11 10 10 11 11 10 9 12 19 23 26 29 32 34 35 36 37 38 38 38 38 39 40 41 42 43 43 43 42 40 38 37 35 34 33 33 33 33 33 33 33 33 33 32 31 30 28 28 28 28 28 27 25 22 22 25 26 25 24 23 23 23 23 24 24 22 20 19 19 18
5 5 5 4 5 6 4 2 2 2 2 2 2 4 6 5 5 9 7 5 7 7 8 10 10 11 11 8 8 11 12 11 11 11 10 14 20 25 30 33 33 34 36 38 39 40 40 40 41 41 42 42 43 43 43 42 39 37 35 32 29 29 29 28 30 34 35 34 35 35 34 32 31 30 29 28 28 28 27 26 23 22 24 25 26 25 24 24 24 24 24 25 23 21 21 20 18
5 6 8 7 9 8 4 5 5 3 2 2 1 1 6 4 4 10 5 3 7 6 7 11 11 11 9 8 10 10 9 9 10 11 10 13 19 25 29 31 32 33 36 38 40 41 41 41 42 42 41 42 43 43 43 42 40 38 36 33 30 29 29 30 35 37 37 36 36 35 34 32 31 30 30 29 28 27 26 26 25 26 25 25 26 24 22 23 23 23 24 25 24 22 21 20 19
4 6 7 6 6 7 8 8 5 3 4 2 3 4 5 6 4 8 4 5 9 6 7 11 11 9 9 10 11 9 9 9 8 8 9 11 17 20 24 29 32 34 38 39 39 40 41 40 41 41 41 41 42 43 42 42 40 39 39 39 37 35 33 36 39 37 35 35 34 33 33 32 31 30 29 29 27 26 26 25 22 22 23 23 23 22 21 20 20 21 23 25 23 20 20 20 20
4 5 7 8 7 8 9 9 4 2 3 2 4 4 3 5 6 7 3 4 9 8 9 11 9 10 11 11 11 10 11 10 8 9 9 11 16 20 24 31 35 38 39 38 37 38 40 40 40 41 41 41 41 41 41 42 41 40 40 40 39 38 37 36 35 32 32 32 31 32 32 31 31 29 28 28 27 25 25 24 22 22 24 23 20 20 20 18 17 20 22 21 20 18 20 21 21
6 4 7 8 7 8 6 6 3 1 3 1 4 2 2 6 7 5 3 3 8 9 10 10 9 10 11 11 10 10 10 9 8 9 9 11 16 23 27 31 34 37 37 36 38 38 38 39 39 39 40 40 40 40 41 42 42 41 40 39 38 37 37 33 29 28 28 29 29 31 31 30 29 28 27 27 26 24 22 22 23 25 27 23 19 18 18 19 20 21 19 17 18 19 19 19 20
4 6 7 5 5 5 5 5 4 2 1 4 6 3 2 5 6 4 3 3 7 9 9 9 8 8 8 9 9 9 8 7 8 8 9 13 18 22 25 26 27 30 33 33 35 36 36 36 36 37 38 39 39 39 40 41 41 40 39 38 37 34 32 30 26 25 25 26 28 29 29 29 28 27 26 25 24 23 22 21 21 22 22 21 20 19 19 21 21 18 17 18 21 22 20 18 18
7 8 6 7 5 4 4 3 4 2 2 6 7 4 3 4 5 5 4 5 7 7 7 8 8 7 7 8 8 8 7 7 7 7 8 11 13 15 18 21 23 25 28 29 30 32 33 34 35 36 37 37 38 38 39 40 40 40 39 37 36 33 30 29 27 25 24 25 27 28 28 27 26 25 24 24 22 21 22 22 21 21 19 18 18 18 18 18 17 16 18 21 22 22 20 17 18
7 5 5 5 3 4 4 4 3 2 5 6 5 2 4 4 5 5 6 7 6 6 6 8 8 8 7 6 6 7 7 6 7 6 7 7 7 8 11 15 18 20 23 27 29 30 31 32 33 34 35 35 37 37 38 38 38 39 39 36 34 32 31 30 29 28 26 26 26 27 26 24 24 23 22 22 22 21 22 22 21 20 18 17 19 19 19 19 19 19 20 20 18 17 17 17 17
4 5 7 6 1 2 1 2 1 4 5 4 3 2 3 5 8 9 10 10 9 8 8 8 8 7 6 6 6 6 5 6 6 6 6 5 5 7 9 11 13 15 18 23 26 28 28 30 31 32 34 34 34 35 36 37 37 38 37 36 33 31 30 30 30 30 28 27 26 25 24 23 22 22 21 20 20 20 20 18 17 17 18 21 23 20 18 16 16 16 15 15 13 13 14 14 14
4 7 7 5 3 3 4 3 1 3 4 3 3 2 2 4 7 11 15 15 11 7 8 9 7 7 7 6 5 5 4 5 5 5 5 5 5 8 9 10 11 12 14 16 19 22 24 26 27 29 30 31 31 32 33 34 35 36 36 35 33 31 30 29 29 29 29 27 26 24 23 23 22 20 19 18 17 17 17 17 18 18 18 18 16 13 11 10 9 10 11 12 13 13 12 12 13
4 5 6 6 5 5 5 3 2 4 2 2 2 1 3 4 4 8 11 12 9 4 7 7 7 7 5 5 5 5 6 5 4 4 4 5 7 9 10 11 12 13 14 14 15 17 19 21 23 24 25 26 27 29 30 31 32 33 33 32 31 30 29 29 28 27 27 26 24 22 21 21 19 17 16 15 15 15 16 16 15 13 10 9 7 6 6 6 7 8 8 9 10 10 10 11 12
4 3 5 4 5 5 3 3 5 5 1 1 2 3 5 4 6 9 6 6 7 5 5 4 6 6 3 4 6 5 5 5 5 4 5 6 7 9 10 10 11 12 14 15 15 16 16 17 19 20 21 22 24 25 26 27 28 28 29 28 28 27 26 26 25 25 25 24 22 21 20 17 15 14 12 11 11 11 11 10 9 7 5 6 8 8 7 7 7 6 5 7 8 8 8 8 9
2 3 4 5 3 7 5 2 1 3 2 3 2 3 5 3 7 10 5 5 6 4 5 5 6 5 3 5 6 5 6 5 5 5 4 5 5 6 8 9 9 9 12 14 15 16 17 18 18 19 19 19 20 21 22 22 23 23 23 23 23 22 22 22 23 22 21 19 17 16 15 14 13 13 12 11 10 9 9 10 11 10 8 8 9 11 11 12 11 10 9 8 7 8 8 7 7
5 4 6 3 2 3 4 3 1 3 2 4 1 4 4 1 3 7 6 6 8 6 6 6 6 5 5 7 7 6 6 6 5 4 3 3 3 4 5 7 8 8 9 10 11 12 14 17 18 18 18 18 18 18 18 18 18 19 18 19 18 18 19 20 20 20 18 16 15 15 15 14 14 13 12 11 10 10 9 9 10 10 9 8 8 8 9 9 8 8 8 7 6 6 6 5 7
4 5 5 4 3 2 2 3 2 2 3 4 3 3 3 4 5 5 5 7 9 8 7 6 7 7 7 8 7 7 6 5 5 4 3 2 3 4 6 7 7 7 7 7 8 9 10 12 14 15 16 16 16 16 16 16 16 16 16 16 16 16 17 17 18 18 18 17 16 15 15 14 12 11 11 10 10 9 8 8 8 8 8 8 8 7 6 5 4 4 5 5 5 5 5 5 6
2 1 2 2 2 4 3 3 4 4 4 3 3 3 3 6 6 6 8 9 8 8 7 7 9 9 8 7 7 6 5 5 5 4 3 2 3 5 7 8 8 8 8 8 8 8 9 10 11 12 13 14 15 15 15 15 15 16 16 15 15 15 16 16 17 18 18 17 16 15 12 10 10 9 9 8 8 8 8 9 9 9 8 8 7 6 5 5 4 4 4 4 4 4 4 5 6
2 3 5 3 1 2 2 1 3 4 4 4 2 3 5 7 5 8 11 11 9 8 7 7 9 8 8 7 5 5 5 5 5 4 3 3 4 6 7 8 9 9 9 9 9 9 9 10 11 12 14 14 15 15 15 16 16 16 17 16 16 17 17 17 18 18 18 16 14 12 10 10 10 10 9 9 10 10 10 10 9 9 7 6 5 4 4 3 3 2 1 1 1 2 3 4 5
5 5 7 8 4 4 4 4 2 2 3 5 4 4 8 6 5 8 11 11 9 7 7 7 7 7 7 6 6 6 6 6 5 5 4 4 6 8 9 9 10 10 10 10 10 11 12 13 14 15 15 16 16 16 16 16 17 17 17 18 18 17 17 17 17 16 15 13 12 11 12 12 12 11 10 10 10 10 9 8 8 7 6 6 6 5 5 5 5 5 5 5 4 4 5 5 6
Wind_Direction
335 331 330 324 324 338 343 71 62 324 83 44 283 181 186 181 163 129 125 135 76 311 282 60 54 74 96 112 135 136 108 162 172 147 213 198 150 157 164 163 159 152 149 144 144 140 131 126 125 128 123 120 116 113 114 113 116 114 109 109 107 103 103 101 98 95 94 92 91 89 86 85 85 86 84 85 86 84 83 83 82 81 80 79 79 79 80 83 87 86 84 86 90 88 86 85 84
340 332 331 330 336 3 310 78 81 327 44 10 289 162 173 11 103 148 163 162 128 173 145 89 78 76 90 107 121 100 39 320 180 152 123 142 145 156 165 163 160 154 151 146 144 140 133 126 125 127 121 119 116 114 115 113 117 114 112 112 108 106 106 102 98 97 97 95 93 92 93 92 89 89 87 88 88 85 85 84 83 83 82 81 80 80 81 83 90 90 87 91 91 90 90 87 86
345 336 342 345 1 47 39 39 89 68 50 310 275 251 129 105 166 190 187 154 149 154 124 98 85 82 92 81 53 68 33 309 83 93 116 142 145 159 167 164 160 157 151 146 144 141 136 127 125 125 123 125 120 117 117 115 118 117 117 115 111 109 107 105 102 101 100 97 93 93 95 94 93 91 91 92 92 90 89 87 86 85 84 83 81 82 82 84 93 92 90 95 93 91 91 88 86
349 346 354 13 43 34 55 38 150 124 49 221 220 278 178 156 186 209 202 169 169 146 112 92 65 36 90 94 70 78 145 288 103 106 138 156 156 161 166 163 160 157 151 147 146 143 137 130 128 127 127 130 123 118 120 118 119 121 121 118 115 112 110 110 105 103 102 98 94 96 96 94 94 92 93 96 97 95 93 93 91 89 87 86 85 85 84 88 95 94 94 98 94 91 90 90 88
347 358 9 46 84 26 86 67 82 101 257 195 159 263 209 171 174 183 223 225 196 103 98 94 71 343 60 104 142 117 167 150 146 142 141 162 162 161 164 163 161 157 152 149 147 145 139 134 132 131 130 133 128 123 126 124 123 124 125 123 122 117 113 111 106 105 104 102 97 99 100 96 96 95 95 98 99 97 93 93 93 91 89 88 89 89 89 94 97 96 98 99 96 93 90 90 90
352 40 31 50 102 137 104 275 285 265 244 171 153 230 195 181 170 162 190 243 25 72 97 89 113 116 57 17 29 138 164 130 159 163 148 157 161 162 163 162 162 157 154 151 151 147 141 139 135 134 133 138 137 130 128 129 125 125 127 126 126 120 115 111 110 110 109 108 103 102 106 102 101 99 98 100 99 97 95 93 92 91 91 91 92 93 93 100 103 98 99 100 98 94 92 90 90
13 46 26 56 53 57 103 189 214 247 240 174 168 182 179 191 177 147 150 117 36 35 68 91 127 108 74 312 43 143 210 180 158 164 158 156 159 162 162 163 161 157 156 154 153 149 144 142 138 137 134 137 141 135 129 131 128 125 128 127 127 124 119 118 117 117 113 113 108 105 109 107 105 104 101 101 99 96 96 95 95 95 95 95 95 96 99 106 107 103 102 101 99 96 95 93 90
24 45 25 92 56 19 102 193 222 222 228 182 175 176 176 184 179 145 151 141 101 81 68 130 134 93 354 19 82 285 251 173 158 159 159 155 159 161 162 164 160 158 158 157 155 151 147 145 142 139 136 133 137 139 134 135 135 129 129 130 129 127 125 126 122 119 116 116 114 110 111 108 105 105 103 102 101 96 96 99 101 99 99 98 98 99 101 109 111 109 107 103 101 99 97 95 91
32 40 15 98 166 24 52 284 259 240 257 169 156 186 177 178 187 145 136 117 130 125 101 169 137 107 137 39 77 294 92 152 156 155 157 158 160 160 164 166 162 159 160 161 159 155 151 149 147 142 140 135 135 140 137 136 138 134 131 131 130 129 129 130 124 122 122 121 120 118 117 115 110 108 107 108 106 103 103 104 105 103 102 101 100 101 102 111 119 118 113 108 105 102 99 97 94
27 24 113 93 145 181 318 282 267 255 247 165 174 190 176 180 185 139 129 138 143 120 122 134 84 110 131 72 200 304 121 151 152 152 159 161 160 161 166 168 163 159 162 165 162 158 153 152 151 146 143 138 137 140 138 139 141 138 133 134 132 132 136 137 129 126 127 125 126 125 123 125 126 122 120 121 116 111 111 110 110 109 107 106 105 104 104 111 123 128 122 115 110 107 103 100 97
30 353 94 87 91 175 236 242 268 265 276 91 198 207 184 176 144 119 118 128 127 116 148 91 84 117 105 78 258 265 152 154 153 154 161 162 162 166 168 169 166 161 165 167 163 160 155 156 155 150 146 142 141 140 142 144 146 144 141 140 138 140 146 145 133 130 128 126 130 128 126 132 137 137 136 133 122 117 118 116 116 115 113 111 111 110 109 111 123 129 126 120 117 113 108 104 101
95 332 60 101 170 188 204 214 239 252 290 116 183 224 191 166 133 134 132 134 131 117 168 153 137 143 90 21 274 205 158 157 158 157 161 163 164 170 171 171 170 167 169 168 164 162 158 158 158 154 150 147 145 144 145 145 146 148 147 148 149 149 150 148 139 134 129 127 132 131 131 137 141 145 143 136 127 124 123 123 124 120 117 116 116 116 114 114 122 126 124 121 120 117 113 107 103
122 146 86 142 199 161 173 210 223 199 271 198 191 202 154 161 156 159 142 131 140 125 198 184 142 116 90 199 274 237 174 164 160 156 161 165 166 172 174 173 172 172 172 170 167 165 162 161 161 159 154 151 150 149 148 145 144 144 146 150 152 149 146 147 144 138 131 128 133 136 138 141 143 147 144 138 133 131 127 128 127 124 121 120 120 118 117 115 121 125 123 123 122 119 116 110 105
134 148 115 176 263 137 161 161 185 164 222 231 207 168 151 186 175 161 132 124 160 151 165 160 137 113 92 167 212 248 192 170 161 158 161 165 170 174 175 174 173 173 174 174 171 169 166 164 164 162 159 156 155 154 153 150 147 146 145 144 144 142 139 140 142 138 136 133 133 138 144 146 147 149 147 143 137 133 130 128 127 125 122 119 118 118 118 116 121 125 125 126 125 123 119 114 111
153 133 96 105 324 274 196 191 165 163 212 224 188 156 134 27 157 155 139 142 189 195 118 111 134 140 159 167 194 209 188 173 165 161 158 164 170 173 175 173 173 174 176 178 176 175 170 168 168 166 165 161 160 158 158 156 153 154 150 146 142 139 137 137 140 138 139 141 140 143 150 153 154 154 151 147 142 137 133 126 123 123 119 118 119 119 118 118 123 126 126 128 128 127 122 118 117
125 108 73 68 283 252 226 192 117 141 225 222 192 153 115 36 130 151 196 150 143 348 63 94 329 165 164 174 193 184 179 171 167 164 156 161 167 169 173 173 175 175 178 182 180 181 176 173 173 172 170 167 167 163 161 161 158 159 157 157 153 148 145 143 142 142 142 145 147 149 154 159 161 161 158 155 151 142 131 118 118 122 120 120 121 121 121 123 128 129 128 129 130 129 125 123 120
68 84 76 334 215 218 224 173 158 173 220 224 231 192 129 103 352 140 336 76 105 53 44 84 338 40 167 206 175 168 171 170 168 163 153 159 163 163 168 171 174 175 180 185 184 186 182 179 179 178 175 172 173 170 167 165 162 165 165 164 163 162 159 153 150 148 148 149 153 154 157 161 162 166 168 168 164 150 130 111 111 117 118 119 120 122 125 129 132 133 133 132 132 132 131 129 123
68 93 136 221 200 206 198 178 201 178 177 197 207 195 142 144 182 148 52 55 89 75 33 24 14 25 122 156 152 158 165 169 170 163 153 158 162 161 167 171 172 175 181 186 187 190 188 186 185 184 181 177 178 178 175 171 168 170 171 170 169 171 169 164 160 154 153 150 153 157 160 162 162 165 170 172 171 159 141 117 108 108 111 112 113 120 128 132 135 138 139 139 137 137 137 137 133
115 127 152 224 207 213 208 194 219 187 171 174 180 188 157 158 164 130 116 130 122 93 26 8 46 44 71 126 144 154 164 169 171 167 158 161 167 168 170 174 174 177 181 185 188 191 193 192 190 189 186 182 182 183 183 180 176 174 175 176 174 175 175 172 167 161 157 149 148 151 155 160 159 161 167 174 176 171 160 142 125 117 119 117 119 126 132 136 139 142 145 145 142 141 141 142 145
164 140 175 238 225 245 238 202 227 240 180 156 171 188 157 171 165 126 137 156 157 142 159 105 105 127 115 132 145 154 165 170 174 172 169 169 172 174 174 177 179 180 182 184 185 189 195 196 196 196 192 188 187 188 190 189 185 181 180 180 180 180 179 177 173 170 164 158 156 153 152 154 154 156 160 171 182 184 177 164 155 147 144 137 136 137 139 142 142 145 148 147 144 140 138 138 147
187 155 189 229 223 282 264 266 263 253 197 161 156 139 152 189 173 132 137 137 211 208 197 175 165 164 151 151 153 158 166 173 177 177 178 178 178 179 180 181 183 185 184 183 186 190 193 196 198 198 198 195 192 192 194 196 194 189 186 185 185 185 184 182 179 177 173 172 172 166 162 161 161 163 161 172 187 188 188 184 175 171 171 159 151 150 149 148 146 148 149 150 147 142 138 137 140
189 216 209 226 187 280 277 322 307 185 119 144 140 147 166 170 127 152 153 159 219 213 205 187 166 162 162 162 161 164 169 175 181 182 184 186 186 185 184 185 185 186 186 187 191 194 195 195 197 197 200 200 197 197 196 199 201 197 193 191 191 190 190 189 186 184 182 181 183 180 177 176 180 187 190 200 200 185 189 195 192 188 188 180 169 166 163 156 153 153 153 155 155 153 150 147 148
218 270 232 244 201 236 292 337 318 93 129 158 160 170 146 136 172 179 172 191 223 209 191 178 167 165 163 159 161 167 173 179 185 187 189 190 191 190 187 188 187 187 188 193 195 198 200 198 199 200 201 203 201 199 200 201 204 205 201 198 198 198 196 196 194 191 190 188 190 192 190 189 190 200 215 219 210 191 182 191 197 194 184 181 178 175 174 168 163 164 165 168 171 176 173 167 167
213 269 268 257 186 213 291 329 335 105 159 199 168 142 141 158 174 156 193 221 238 231 177 161 160 158 155 157 167 175 179 183 188 192 193 193 194 194 191 191 192 191 192 194 196 200 203 202 203 205 205 207 205 200 203 206 206 208 207 205 205 205 205 205 202 197 195 196 198 201 201 198 197 210 226 228 219 203 187 181 190 187 170 166 176 181 182 178 177 182 186 189 192 203 217 221 226
207 242 256 251 188 246 300 330 12 95 153 269 120 140 168 183 165 151 210 234 241 224 141 146 148 149 157 167 175 179 183 187 190 193 197 199 198 197 196 196 196 197 199 198 197 200 205 205 205 207 208 209 210 205 205 209 210 210 209 209 208 208 211 211 209 203 198 199 203 207 206 201 204 219 233 234 222 209 199 190 193 190 179 179 188 196 197 189 191 201 210 211 207 212 223 232 249
207 217 227 193 224 267 317 337 354 58 106 113 134 158 260 253 274 191 220 223 208 108 131 146 147 157 170 174 178 181 185 190 191 193 197 201 199 200 201 201 201 201 204 204 201 201 205 207 206 208 210 211 213 210 209 212 212 212 211 211 209 209 212 212 212 208 202 202 206 209 209 206 212 224 232 232 223 214 210 206 208 205 199 205 212 219 220 213 211 220 231 234 231 230 232 238 246
220 198 196 173 227 251 42 334 301 335 17 142 146 180 286 315 352 222 236 209 146 111 137 155 155 168 178 178 184 184 188 193 193 191 192 198 200 202 203 203 206 206 206 207 206 204 204 207 209 209 211 213 214 214 214 214 214 215 213 213 211 211 213 210 212 214 207 205 208 211 212 211 217 226 228 229 226 220 220 218 217 217 213 215 224 235 239 240 241 248 255 251 250 250 250 253 251
264 169 130 3 0 325 76 123 272 315 87 155 130 128 307 338 321 227 229 180 147 136 149 166 169 176 181 181 186 188 195 198 193 189 189 196 201 202 204 205 206 207 209 210 211 208 206 207 210 211 213 214 214 215 215 215 217 217 215 215 214 214 214 213 213 216 213 209 209 212 216 216 217 224 224 225 227 226 230 229 225 226 225 224 230 239 244 248 252 261 261 250 249 252 252 254 255
279 166 137 336 10 335 231 163 253 245 180 185 126 95 306 276 231 241 214 153 142 142 157 175 181 182 183 183 186 193 202 200 193 195 198 200 202 202 204 206 206 208 211 212 213 212 210 209 210 212 213 214 215 215 216 217 220 219 218 220 219 217 216 217 216 217 218 216 213 214 219 220 218 222 224 224 227 230 236 236 235 234 233 234 238 243 246 249 253 260 256 244 243 249 251 255 259
275 212 144 164 21 309 250 179 131 158 201 250 133 201 266 247 237 243 153 147 139 145 172 184 189 189 187 186 190 199 202 197 197 204 206 204 204 204 205 207 207 209 211 212 213 214 213 211 211 213 213 215 216 216 217 219 221 221 221 222 223 221 219 221 221 221 222 221 220 220 220 222 221 223 226 228 230 232 236 238 239 238 237 239 241 244 246 249 254 257 253 247 247 253 257 259 261
257 252 206 131 162 258 283 216 141 163 238 49 113 203 256 259 251 243 195 168 160 173 190 189 192 194 193 194 195 202 203 200 205 208 208 208 207 207 207 208 208 210 211 211 213 214 214 213 213 214 215 216 216 217 219 220 221 221 221 222 223 224 224 225 224 224 225 224 225 225 224 225 225 225 227 230 232 232 234 236 238 239 238 239 242 245 246 249 254 255 254 255 256 258 260 261 262
229 213 265 314 168 255 300 254 161 164 264 51 122 209 265 270 265 265 219 187 182 186 195 194 195 196 195 200 201 206 211 209 213 214 212 211 209 209 210 209 208 210 212 212 213 214 215 215 214 214 215 216 217 217 219 221 221 221 221 223 224 225 226 226 227 227 228 228 228 228 229 230 228 227 226 229 231 231 232 235 237 237 236 239 243 244 245 248 252 254 255 257 260 260 261 263 262
260 186 225 237 171 241 301 276 195 165 150 74 159 220 263 271 284 305 236 187 195 194 198 201 201 203 198 200 205 207 213 214 219 220 218 215 213 212 212 211 210 211 213 213 213 213 214 215 214 215 216 216 217 218 219 221 221 221 222 223 225 226 227 228 229 229 230 231 231 231 232 234 232 228 227 231 232 232 232 233 236 236 234 238 244 246 246 249 253 254 255 259 263 263 263 263 264
257 129 195 223 181 194 239 269 250 157 154 205 200 225 248 268 291 313 314 179 193 203 203 205 205 210 207 204 208 208 210 212 217 218 217 216 214 214 214 214 213 212 214 215 214 214 214 214 214 215 216 217 218 218 219 220 221 222 223 225 226 227 229 230 231 231 232 233 233 233 233 236 235 231 231 235 236 235 233 231 233 235 235 240 247 248 248 252 254 254 255 260 263 266 267 268 271
177 161 177 226 202 200 221 242 225 155 164 212 192 230 254 265 277 288 302 177 192 220 218 215 214 212 214 209 209 212 211 216 219 216 215 215 214 214 215 215 215 214 215 216 216 216 215 215 215 215 216 217 218 219 219 219 220 221 223 225 226 228 230 231 232 233 234 234 235 234 235 237 236 234 234 236 238 237 233 229 230 232 236 243 249 249 250 253 252 251 254 258 261 265 270 275 281
170 181 173 183 193 226 225 235 247 167 161 216 200 219 242 250 264 263 281 304 208 245 256 249 235 222 220 216 217 216 213 221 222 217 215 214 214 215 214 215 216 215 215 216 216 216 216 214 214 214 215 216 216 216 216 216 216 217 219 221 223 225 227 229 232 234 235 236 236 234 234 236 236 236 235 235 237 237 236 234 232 233 236 242 247 247 249 251 252 255 256 258 262 265 268 274 281
169 182 190 196 190 221 232 236 290 142 153 231 214 226 247 250 259 252 264 325 265 253 253 249 244 234 227 223 226 221 219 228 224 217 216 215 215 215 214 214 215 216 216 216 215 215 216 214 212 212 213 213 213 213 212 212 212 212 214 217 219 222 224 226 230 232 235 237 237 235 234 234 235 236 237 237 236 236 239 240 238 237 237 241 244 245 247 250 256 262 261 260 264 266 268 272 275
173 189 207 221 203 224 249 234 303 41 161 254 256 242 258 256 255 256 251 269 250 236 233 240 238 235 233 228 230 228 231 239 222 216 218 216 215 215 214 213 213 215 216 215 215 216 216 214 213 212 212 211 212 213 212 212 213 212 213 215 218 221 223 225 227 231 233 236 237 237 236 236 236 235 236 238 238 238 239 240 242 243 244 244 244 244 246 250 256 260 259 259 261 261 262 268 271
200 198 185 223 221 232 279 267 307 27 168 265 327 238 256 258 257 262 233 228 241 227 219 230 230 231 234 226 227 230 238 242 221 216 219 215 215 213 212 213 213 215 217 216 216 216 215 214 213 213 213 212 213 213 213 214 215 216 216 218 219 221 224 227 229 232 234 236 237 238 238 238 238 237 236 237 237 240 241 240 240 244 247 245 243 242 243 247 254 257 257 256 256 257 259 265 267
204 185 167 221 212 180 252 261 261 58 122 199 85 294 272 270 278 271 236 227 246 238 220 228 227 226 232 227 222 219 223 228 223 224 222 215 214 212 211 213 214 215 216 216 216 216 214 214 214 214 214 215 214 214 216 217 218 217 217 220 222 223 227 229 231 234 236 236 236 237 238 238 239 239 237 237 237 240 243 239 238 243 247 248 247 245 245 248 252 255 257 255 253 254 258 265 266
220 195 179 207 200 192 214 196 119 35 16 98 96 353 301 265 266 264 250 233 250 245 226 237 239 234 242 250 240 223 220 220 216 220 220 212 212 213 213 213 213 214 215 216 216 215 215 215 215 216 216 216 216 217 218 218 216 215 215 217 221 223 226 228 228 231 232 233 234 235 235 236 238 238 239 239 240 241 241 239 241 243 242 245 247 247 250 253 254 256 258 256 253 254 258 264 267
236 214 196 200 198 195 169 127 97 61 319 287 131 332 290 295 267 253 274 309 261 244 225 237 241 238 241 248 243 232 230 227 220 221 219 212 211 213 214 214 213 214 217 218 218 217 217 216 216 216 216 217 217 219 219 217 215 213 212 212 213 215 217 221 224 226 226 228 230 232 234 236 237 238 240 242 242 241 240 241 245 245 242 244 246 248 252 255 255 255 257 256 255 257 260 260 264
232 228 196 177 167 157 146 146 118 125 226 290 93 162 254 313 299 255 288 306 269 266 253 247 242 236 231 232 235 230 231 232 228 232 227 219 216 213 214 214 214 216 219 220 220 219 218 217 217 216 216 217 217 218 218 216 214 213 213 214 214 214 215 220 224 226 226 226 228 230 233 235 236 238 241 242 243 243 243 243 245 246 246 247 247 249 251 253 256 257 259 259 257 259 261 259 264
226 228 163 138 138 151 159 155 135 170 194 360 30 130 217 287 274 265 305 299 281 281 265 256 246 236 231 230 232 226 226 225 220 225 223 220 217 213 214 215 215 218 220 219 219 220 219 218 218 217 217 217 217 217 217 216 214 214 215 216 218 218 219 223 225 226 228 229 230 231 234 235 236 237 240 242 243 244 245 244 242 242 242 242 246 253 255 254 256 259 262 262 260 262 262 263 268
231 196 144 140 147 151 151 138 116 88 122 315 305 123 169 268 274 296 331 292 284 280 264 259 247 237 235 234 234 231 233 230 222 223 223 223 221 218 218 218 218 219 218 218 219 220 220 219 218 218 218 218 217 217 217 217 217 216 217 217 219 221 223 225 227 228 229 230 233 234 235 236 237 237 238 240 242 243 244 242 243 246 245 242 245 254 258 255 255 257 261 261 259 259 259 265 271
201 139 109 85 88 94 95 112 103 61 108 230 246 187 175 268 280 299 325 275 264 265 265 264 255 248 244 241 239 235 235 232 227 226 226 229 228 227 225 224 223 221 218 218 219 220 220 219 219 219 219 219 218 218 217 218 218 218 218 219 220 223 224 225 227 229 229 230 233 235 235 235 237 238 237 238 240 242 243 241 242 246 247 245 246 251 256 257 257 258 260 258 257 257 258 265 273
134 117 92 69 52 48 55 64 88 95 265 248 236 204 180 262 278 250 229 230 228 236 262 276 278 273 255 246 242 230 224 219 217 218 222 224 224 226 226 225 226 224 221 220 219 219 219 219 219 219 221 220 219 219 218 219 219 219 220 221 221 222 223 223 224 226 227 228 230 233 233 234 236 238 236 236 236 238 243 242 242 242 242 243 246 249 252 254 252 250 254 257 258 259 261 268 276
119 116 116 100 21 16 33 1 43 167 248 260 246 207 170 223 262 245 235 245 228 213 239 266 277 277 267 264 254 229 214 202 197 199 208 204 192 197 205 212 219 221 220 220 220 221 220 220 220 220 221 221 220 220 219 220 220 220 221 222 222 222 222 223 223 224 226 227 229 231 232 232 233 234 233 234 235 236 239 241 244 245 242 239 241 242 244 246 248 250 255 259 262 267 270 272 274
112 130 136 128 77 38 143 273 274 213 245 260 240 199 192 233 253 256 260 261 244 217 220 242 256 256 254 256 246 224 207 194 190 192 201 201 194 195 193 196 204 208 213 217 219 221 221 221 221 221 221 221 221 221 221 221 221 221 222 222 223 223 224 224 225 227 229 231 231 229 228 229 229 230 230 232 235 236 236 238 241 240 238 239 240 242 247 254 258 259 261 261 264 274 279 277 278
138 148 150 146 138 131 195 237 291 247 256 273 252 227 252 269 261 251 249 253 250 225 224 235 234 230 232 242 245 243 244 225 216 219 213 211 212 208 205 206 209 209 209 211 215 218 220 220 220 222 223 223 222 222 222 222 223 224 224 224 224 225 225 226 228 230 233 233 231 228 228 229 230 229 227 225 226 229 230 232 233 233 238 243 244 247 257 266 271 271 272 271 270 279 288 289 290
174 165 143 153 160 156 189 205 196 217 252 281 261 215 195 198 246 247 237 255 274 257 243 241 231 236 249 268 272 263 263 260 255 256 242 230 220 212 213 216 220 221 216 212 211 212 214 216 217 220 221 222 222 223 223 223 224 224 225 225 226 227 228 229 229 231 233 231 228 226 226 228 228 228 226 221 218 218 222 228 230 225 225 231 233 240 248 255 268 273 275 274 272 278 285 286 290
208 150 121 174 181 145 148 180 179 170 152 240 220 228 216 205 274 280 252 261 283 275 270 256 231 241 246 252 254 247 252 262 263 258 251 248 232 219 219 221 226 226 220 216 214 212 212 212 213 216 218 220 220 221 221 222 223 223 224 224 225 225 226 226 226 226 227 227 226 225 223 222 222 219 210 201 195 195 200 209 215 204 200 217 228 241 251 255 258 255 258 271 278 284 286 288 295
173 127 178 215 163 116 118 165 134 102 151 238 206 248 289 316 291 292 297 273 273 274 273 255 234 237 233 234 239 239 246 256 256 243 241 250 233 219 221 221 224 223 216 218 220 220 219 216 214 213 214 215 215 216 217 217 218 219 219 220 220 221 221 220 220 218 217 216 214 211 207 201 197 191 184 178 174 181 192 204 215 226 236 237 236 244 252 254 251 249 256 269 273 275 283 292 296
140 173 198 190 111 97 109 135 34 66 197 265 259 224 276 311 259 305 326 273 259 252 239 243 248 246 241 241 238 240 248 258 259 243 240 254 213 197 205 209 216 218 217 220 220 220 219 217 216 214 211 209 208 209 209 209 210 210 210 211 211 212 212 212 212 208 200 192 186 183 183 183 184 186 188 192 197 203 207 207 211 220 228 230 235 245 251 252 249 248 253 255 251 256 274 290 291
146 187 183 139 159 200 127 145 169 162 210 275 300 259 250 200 216 289 287 239 241 244 225 224 240 234 230 238 240 246 254 254 248 225 217 217 169 170 178 183 196 201 204 207 202 203 205 208 212 211 209 206 202 201 200 199 200 199 198 198 199 200 200 200 198 191 185 181 176 174 176 181 190 199 206 207 209 209 205 201 203 210 219 229 239 242 243 243 238 233 231 233 244 257 272 284 296
49 134 161 115 136 170 174 162 160 173 199 235 290 306 257 222 215 226 235 232 227 227 217 216 227 223 219 226 229 234 231 223 219 207 201 179 147 159 170 175 182 182 185 188 187 191 195 197 198 196 194 192 190 192 191 190 190 189 186 184 184 184 183 183 181 178 177 175 175 177 183 190 195 199 200 193 190 192 192 195 201 209 216 220 222 217 218 226 226 227 227 232 256 278 294 304 319
145 154 177 190 98 120 169 156 131 150 169 182 218 272 257 244 213 201 224 240 229 210 205 222 229 221 218 217 211 210 207 210 214 195 180 156 145 153 162 169 170 169 171 176 179 183 183 183 181 177 175 172 174 177 180 181 179 178 176 170 168 169 169 170 170 171 172 173 180 185 184 183 179 177 181 183 185 188 192 197 198 200 201 194 192 190 188 198 191 185 187 196 308 332 345 345 354
177 178 189 189 163 130 172 211 196 129 159 175 178 234 258 251 206 200 217 231 232 208 195 222 236 223 221 216 203 197 191 196 197 175 169 170 160 154 154 158 158 158 161 165 169 171 169 169 169 169 168 167 168 168 169 170 167 167 167 162 159 159 161 165 166 168 172 176 183 182 172 169 168 171 180 188 193 192 192 194 187 177 168 156 149 140 131 126 125 121 113 104 89 74 64 47 39